Regional Weather Roundup
Issued by NWS Midland/Odessa, TX

Skip options and go directly to product.
Home | Oldest Version | Previous Version | Current Version | All | Graphics & Text | Save Text | Print | Product List | Glossary On

Skip product version selection by date and time.   
788
ASUS44 KMAF 011710
RWRMAF
MIDLAND AREA WEATHER ROUNDUP
NATIONAL WEATHER SERVICE MIDLAND TX
1200 PM CDT SUN MAY 01 2016

...IN SOUTHWEST TEXAS AND SOUTHEAST NEW MEXICO...

CITY           SKY/WX    TMP DP  RH WIND       PRES   REMARKS
ALPINE         CLOUDY    50  38  62 NE17      30.15R
ANDREWS        CLOUDY    50  33  52 NE13      30.13R
ARTESIA        CLOUDY    45  36  70 N20       30.22R WCI  37
BIG SPRING     CLOUDY    53  32  45 NE18G28   30.10F
CARLSBAD       CLOUDY    48  34  58 N22       30.18R
DRYDEN           N/A     70  60  70 NE15      29.93R
FORT STOCKTON  CLOUDY    53  37  54 N18       30.08R
GUAD PASS      CLOUDY    44  33  65 NE38      30.11R WCI  33
HOBBS          LGT RAIN  46  32  57 N21       30.16S WCI  39
MARFA          SUNNY     56  39  53 N28G33    30.05R
MIDLAND AIRPK  CLOUDY    55  34  44 E18       30.09F
MIDLAND INTL   CLOUDY    55  34  45 NE20G28   30.08S
ODESSA         CLOUDY    54  33  45 NE18G26   30.10R
PECOS          CLOUDY    54  35  47 N13G21    30.13R
PRESIDIO       FAIR      80  28  15 MISG      29.89S
SEMINOLE       CLOUDY    50  33  51 N10G17    30.16R
SNYDER           N/A     55  36  49 N15G21    30.11F
WINK           CLOUDY    53  34  48 NE15      30.12R
$$
...OTHER STATIONS IN TEXAS...

CITY           SKY/WX    TMP DP  RH WIND       PRES   REMARKS
ABILENE        PTSUNNY   61  40  45 N18G24    30.09F
AMARILLO       CLOUDY    45  34  65 N20G26    30.19R WCI  37
AUSTIN         CLOUDY    73  63  70 N17       29.94R
BROWNSVILLE    CLOUDY    83  74  74 SE10      29.78S
CORPUS CHRISTI PTSUNNY   87  72  60 SE5       29.81R
DALLAS FTW     SUNNY     68  48  48 N16G24    30.03R
DEL RIO        CLOUDY    77  67  71 SE10      29.87S
EL PASO        MOSUNNY   62  35  36 E14       30.03R
HOUSTON INT    PTSUNNY   82  72  71 NE8       29.87R
LUBBOCK        CLOUDY    52  34  50 NE21G30   30.12F
SAN ANGELO     CLOUDY    62  43  49 NE21G26   30.04S
SAN ANTONIO    CLOUDY    73  60  63 NE16G22   29.92R
WACO           MOSUNNY   73  53  49 N18G24    30.00S
WICHITA FALLS  NOT AVBL
$$
...OTHER LOCATIONS IN NEW MEXICO...

CITY           SKY/WX    TMP DP  RH WIND       PRES   REMARKS
ALAMAGORDO     MOSUNNY   61  32  33 N12G17    30.03S
ALBUQUERQUE    PTSUNNY   47  30  51 E30G41    30.09R WCI  38
CANNON AFB     LGT RAIN  37  37 100 N23       30.19R WCI  26
CLOVIS         CLOUDY    39  36  87 N22G30    30.22R WCI  29
HOLLOMAN AFB   MOSUNNY   61  35  36 VRB6      30.01F
ROSWELL        CLOUDY    41  37  86 N13       30.23R WCI  34
RUIDOSO          N/A     32  32 100 SE10      30.22R FOG     WCI  24
SANTA FE       LGT RAIN  39  33  79 N9        30.13R WCI  33
TRUTH OR CONSE CLOUDY    59  32  36 E9        30.00S
TUCUMCARI      LGT RAIN  42  36  79 N20G26    30.23R WCI  33
$$

USA.gov is the U.S. government's official web portal to all federal, state and local government web resources and services.